TimeICT,TemperatureF,Dew PointF,Humidity,Sea Level PressureIn,VisibilityMPH,Wind Direction,Wind SpeedMPH,Gust SpeedMPH,PrecipitationIn,Events,Conditions,WindDirDegrees,DateUTC
1:00 AM,74,71,88,29.91,6,Calm,Calm,,,,,,2012-11-15 18:00:00
7:00 AM,72,71,94,29.92,0,Calm,Calm,,,Fog,Heavy Fog,,2012-11-16 00:00:00
7:00 AM,69.8,69.8,100,29.92,0.1,Variable,1.2,-,N/A,Fog,Fog,0,2012-11-16 00:00:00
8:00 AM,71.6,71.6,100,29.95,1.2,Variable,2.3,-,N/A,,Mostly Cloudy,0,2012-11-16 01:00:00
9:00 AM,78.8,73.4,83,29.95,1.9,Variable,2.3,-,N/A,,Partly Cloudy,0,2012-11-16 02:00:00
10:00 AM,84.2,69.8,62,29.95,4.3,Variable,2.3,-,N/A,,Partly Cloudy,0,2012-11-16 03:00:00
11:00 AM,86.0,68.0,55,29.95,6.2,Variable,2.3,-,N/A,,Partly Cloudy,0,2012-11-16 04:00:00
12:00 PM,89.6,64.4,43,29.92,6.2,Variable,2.3,-,N/A,,Scattered Clouds,0,2012-11-16 05:00:00
1:00 PM,90,71,44,29.85,7,Calm,Calm,,,,Partly Cloudy,,2012-11-16 06:00:00
1:00 PM,89.6,64.4,43,29.86,6.2,Variable,2.3,-,N/A,,Mostly Cloudy,0,2012-11-16 06:00:00
1:30 PM,89.6,64.4,43,29.86,6.2,Variable,2.3,-,N/A,,Mostly Cloudy,0,2012-11-16 06:30:00
2:00 PM,91.4,64.4,41,29.83,6.2,Variable,2.3,-,N/A,,Mostly Cloudy,0,2012-11-16 07:00:00
3:00 PM,91.4,64.4,41,29.83,6.2,Variable,2.3,-,N/A,,Mostly Cloudy,0,2012-11-16 08:00:00
4:00 PM,89.6,62.6,40,29.80,6.2,Variable,2.3,-,N/A,,Mostly Cloudy,0,2012-11-16 09:00:00
4:30 PM,89.6,62.6,40,29.80,6.2,Variable,2.3,-,N/A,,Mostly Cloudy,0,2012-11-16 09:30:00
5:30 PM,86.0,68.0,55,29.83,6.2,Variable,2.3,-,N/A,,Mostly Cloudy,0,2012-11-16 10:30:00
6:00 PM,80.6,75.2,84,29.83,6.2,Variable,2.3,-,N/A,,Mostly Cloudy,0,2012-11-16 11:00:00
6:30 PM,89.6,64.4,43,29.83,6.2,Variable,2.3,-,N/A,,Mostly Cloudy,0,2012-11-16 11:30:00
7:00 PM,82,73,68,29.85,7,Calm,Calm,,,,Clear,,2012-11-16 12:00:00
7:00 PM,77.0,77.0,100,29.89,6.2,Variable,2.3,-,N/A,,Mostly Cloudy,0,2012-11-16 12:00:00